Time,TemperatureF,DewpointF,PressureIn,WindDirection,WindDirectionDegrees,WindSpeedMPH,WindSpeedGustMPH,Humidity,HourlyPrecipIn,Conditions,Clouds,dailyrainin,SolarRadiationWatts/m^2,SoftwareType,DateUTC
2013-08-04 00:01:00,79.9,78.0,29.96,NE,37,0.0,0.0,94,0.00,BKN,,0.00,0.0,WeatherDisplay:10.37,2013-08-04 04:01:00,
2013-08-04 00:02:00,79.8,77.9,29.96,NE,38,0.0,0.0,94,0.00,SCT,,0.00,0.0,WeatherDisplay:10.37,2013-08-04 04:02:00,
2013-08-04 00:07:00,79.8,77.9,29.96,NE,38,0.0,0.0,94,0.00,SCT,,0.00,0.0,WeatherDisplay:10.37,2013-08-04 04:07:00,
2013-08-04 00:12:00,79.6,77.7,29.96,NE,38,0.0,0.0,94,0.00,SCT,,0.00,0.0,WeatherDisplay:10.37,2013-08-04 04:12:00,
2013-08-04 00:17:00,79.5,77.9,29.96,NE,37,0.0,0.0,95,0.00,SCT,,0.00,0.0,WeatherDisplay:10.37,2013-08-04 04:17:00,
2013-08-04 00:22:00,79.5,77.9,29.96,NE,38,0.0,0.0,95,0.00,SCT,,0.00,0.0,WeatherDisplay:10.37,2013-08-04 04:22:00,
2013-08-04 00:27:00,79.4,77.8,29.95,NE,37,0.0,0.0,95,0.00,SCT,,0.00,0.0,WeatherDisplay:10.37,2013-08-04 04:27:00,
2013-08-04 00:32:00,79.4,77.8,29.95,NE,37,0.0,0.0,95,0.00,SCT,,0.00,0.0,WeatherDisplay:10.37,2013-08-04 04:32:00,
2013-08-04 00:37:00,79.4,77.8,29.95,NE,38,0.0,0.0,95,0.00,SCT,,0.00,0.0,WeatherDisplay:10.37,2013-08-04 04:37:00,
2013-08-04 00:42:00,79.4,77.8,29.95,NE,37,0.0,0.0,95,0.00,SCT,,0.00,0.0,WeatherDisplay:10.37,2013-08-04 04:42:00,
2013-08-04 00:47:00,79.3,77.7,29.95,NE,37,0.0,0.0,95,0.00,SCT,,0.00,0.0,WeatherDisplay:10.37,2013-08-04 04:47:00,
2013-08-04 00:52:00,79.3,77.7,29.95,NE,37,0.0,0.0,95,0.00,SCT,,0.00,0.0,WeatherDisplay:10.37,2013-08-04 04:52:00,
2013-08-04 00:57:00,79.2,78.0,29.94,NE,37,0.0,0.0,96,0.00,SCT,,0.00,0.0,WeatherDisplay:10.37,2013-08-04 04:57:00,
2013-08-04 01:02:00,79.2,78.0,29.94,NE,37,0.0,0.0,96,0.00,SCT,,0.00,0.0,WeatherDisplay:10.37,2013-08-04 05:02:00,
2013-08-04 01:07:00,79.1,77.9,29.94,NE,38,0.0,0.0,96,0.00,SCT,,0.00,0.0,WeatherDisplay:10.37,2013-08-04 05:07:00,
2013-08-04 01:12:00,79.1,77.9,29.94,NE,38,0.0,0.0,96,0.00,SCT,,0.00,0.0,WeatherDisplay:10.37,2013-08-04 05:12:00,
2013-08-04 01:17:00,79.0,77.8,29.94,NE,37,0.0,0.0,96,0.00,SCT,,0.00,0.0,WeatherDisplay:10.37,2013-08-04 05:17:00,
2013-08-04 01:22:00,79.0,77.8,29.94,NE,37,0.0,0.0,96,0.00,SCT,,0.00,0.0,WeatherDisplay:10.37,2013-08-04 05:22:00,
2013-08-04 01:27:00,78.9,77.7,29.94,NE,38,0.0,0.0,96,0.00,SCT,,0.00,0.0,WeatherDisplay:10.37,2013-08-04 05:27:00,
2013-08-04 01:32:00,78.9,77.7,29.93,NE,37,1.2,1.2,96,0.00,SCT,,0.00,0.0,WeatherDisplay:10.37,2013-08-04 05:32:00,
2013-08-04 01:37:00,78.9,77.7,29.93,NE,35,1.2,1.2,96,0.00,SCT,,0.00,0.0,WeatherDisplay:10.37,2013-08-04 05:37:00,
2013-08-04 01:42:00,78.9,77.7,29.93,NE,35,0.0,0.0,96,0.00,SCT,,0.00,0.0,WeatherDisplay:10.37,2013-08-04 05:42:00,
2013-08-04 01:47:00,78.9,77.7,29.92,NE,36,1.2,1.2,96,0.00,SCT,,0.00,0.0,WeatherDisplay:10.37,2013-08-04 05:47:00,
2013-08-04 01:52:00,78.7,77.5,29.92,NE,35,0.0,0.0,96,0.00,SCT,,0.00,0.0,WeatherDisplay:10.37,2013-08-04 05:52:00,
2013-08-04 01:57:00,78.7,77.5,29.92,NE,35,0.0,0.0,96,0.00,SCT,,0.00,0.0,WeatherDisplay:10.37,2013-08-04 05:57:00,
2013-08-04 02:02:00,78.5,77.3,29.92,NE,35,0.0,0.0,96,0.00,SCT,,0.00,0.0,WeatherDisplay:10.37,2013-08-04 06:02:00,
2013-08-04 02:07:00,78.4,77.2,29.92,NE,35,0.0,0.0,96,0.00,SCT,,0.00,0.0,WeatherDisplay:10.37,2013-08-04 06:07:00,
2013-08-04 02:12:00,78.2,77.0,29.92,NE,36,0.0,0.0,96,0.00,SCT,,0.00,0.0,WeatherDisplay:10.37,2013-08-04 06:12:00,
2013-08-04 02:17:00,78.2,77.0,29.92,NE,35,0.0,0.0,96,0.00,SCT,,0.00,0.0,WeatherDisplay:10.37,2013-08-04 06:17:00,
2013-08-04 02:22:00,78.0,76.8,29.92,NE,35,0.0,0.0,96,0.00,SCT,,0.00,0.0,WeatherDisplay:10.37,2013-08-04 06:22:00,
2013-08-04 02:27:00,77.9,76.7,29.92,NE,35,0.0,0.0,96,0.00,SCT,,0.00,0.0,WeatherDisplay:10.37,2013-08-04 06:27:00,
2013-08-04 02:32:00,77.8,76.6,29.92,NE,35,0.0,0.0,96,0.00,SCT,,0.00,0.0,WeatherDisplay:10.37,2013-08-04 06:32:00,
2013-08-04 02:37:00,77.7,76.5,29.91,NE,36,0.0,0.0,96,0.00,SCT,,0.00,0.0,WeatherDisplay:10.37,2013-08-04 06:37:00,
2013-08-04 02:42:00,77.7,76.5,29.91,NE,35,0.0,0.0,96,0.00,SCT,,0.00,0.0,WeatherDisplay:10.37,2013-08-04 06:42:00,
2013-08-04 02:47:00,77.6,76.4,29.90,NE,35,1.2,0.0,96,0.00,SCT,,0.00,0.0,WeatherDisplay:10.37,2013-08-04 06:47:00,
2013-08-04 02:52:00,77.5,76.3,29.90,NE,35,1.2,1.2,96,0.00,SCT,,0.00,0.0,WeatherDisplay:10.37,2013-08-04 06:52:00,
2013-08-04 02:57:00,77.4,76.2,29.90,NE,35,0.0,0.0,96,0.00,SCT,,0.00,0.0,WeatherDisplay:10.37,2013-08-04 06:57:00,
2013-08-04 03:02:00,77.3,76.1,29.90,NE,35,0.0,0.0,96,0.00,SCT,,0.00,0.0,WeatherDisplay:10.37,2013-08-04 07:02:00,
2013-08-04 03:07:00,77.2,76.0,29.90,NE,35,1.2,0.0,96,0.00,SCT,,0.00,0.0,WeatherDisplay:10.37,2013-08-04 07:07:00,
2013-08-04 03:12:00,77.2,76.0,29.91,NE,35,0.0,0.0,96,0.00,SCT,,0.00,0.0,WeatherDisplay:10.37,2013-08-04 07:12:00,
2013-08-04 03:17:00,77.2,76.0,29.90,NE,35,1.2,1.2,96,0.00,SCT,,0.00,0.0,WeatherDisplay:10.37,2013-08-04 07:17:00,
2013-08-04 03:22:00,77.4,76.5,29.91,NE,34,1.2,1.2,97,0.00,SCT,,0.00,0.0,WeatherDisplay:10.37,2013-08-04 07:22:00,
2013-08-04 03:27:00,77.5,76.6,29.91,NNE,33,0.0,0.0,97,0.00,SCT,,0.00,0.0,WeatherDisplay:10.37,2013-08-04 07:27:00,
2013-08-04 03:32:00,77.6,76.7,29.91,NNE,33,0.0,0.0,97,0.00,SCT,,0.00,0.0,WeatherDisplay:10.37,2013-08-04 07:32:00,
2013-08-04 03:37:00,77.6,76.7,29.91,NNE,33,0.0,0.0,97,0.00,SCT,,0.00,0.0,WeatherDisplay:10.37,2013-08-04 07:37:00,
2013-08-04 03:42:00,77.6,76.7,29.91,NNE,33,0.0,0.0,97,0.00,SCT,,0.00,0.0,WeatherDisplay:10.37,2013-08-04 07:42:00,
2013-08-04 03:47:00,77.7,76.8,29.91,NNE,33,0.0,0.0,97,0.00,SCT,,0.00,0.0,WeatherDisplay:10.37,2013-08-04 07:47:00,
2013-08-04 03:52:00,77.7,76.8,29.91,NNE,33,0.0,0.0,97,0.00,SCT,,0.00,0.0,WeatherDisplay:10.37,2013-08-04 07:52:00,
2013-08-04 03:57:00,77.7,76.8,29.91,NNE,33,0.0,0.0,97,0.00,SCT,,0.00,0.0,WeatherDisplay:10.37,2013-08-04 07:57:00,
2013-08-04 04:03:00,77.6,76.7,29.91,NNE,33,0.0,0.0,97,0.00,SCT,,0.00,0.0,WeatherDisplay:10.37,2013-08-04 08:03:00,
2013-08-04 04:07:00,77.6,76.7,29.91,NNE,33,0.0,0.0,97,0.00,SCT,,0.00,0.0,WeatherDisplay:10.37,2013-08-04 08:07:00,
2013-08-04 04:13:00,77.5,76.6,29.90,NNE,33,0.0,0.0,97,0.00,SCT,,0.00,0.0,WeatherDisplay:10.37,2013-08-04 08:13:00,
2013-08-04 04:18:00,77.4,76.5,29.90,NNE,33,0.0,0.0,97,0.00,SCT,,0.00,0.0,WeatherDisplay:10.37,2013-08-04 08:18:00,
2013-08-04 04:23:00,77.3,76.4,29.90,NE,34,0.0,0.0,97,0.00,SCT,,0.00,0.0,WeatherDisplay:10.37,2013-08-04 08:23:00,
2013-08-04 04:28:00,77.2,76.3,29.90,NNE,33,0.0,0.0,97,0.00,SCT,,0.00,0.0,WeatherDisplay:10.37,2013-08-04 08:28:00,
2013-08-04 04:33:00,77.1,76.2,29.90,NNE,33,1.2,0.0,97,0.00,SCT,,0.00,0.0,WeatherDisplay:10.37,2013-08-04 08:33:00,
2013-08-04 04:38:00,77.0,76.1,29.90,NNE,33,0.0,0.0,97,0.00,SCT,,0.00,0.0,WeatherDisplay:10.37,2013-08-04 08:38:00,
2013-08-04 04:43:00,76.9,76.0,29.90,NNE,33,1.2,0.0,97,0.00,SCT,,0.00,0.0,WeatherDisplay:10.37,2013-08-04 08:43:00,
2013-08-04 04:48:00,76.9,76.0,29.91,NNE,33,0.0,0.0,97,0.00,SCT,,0.00,0.0,WeatherDisplay:10.37,2013-08-04 08:48:00,
2013-08-04 04:53:00,76.7,75.8,29.91,NNE,33,0.0,0.0,97,0.00,SCT,,0.00,0.0,WeatherDisplay:10.37,2013-08-04 08:53:00,
2013-08-04 04:57:00,76.6,75.7,29.91,NNE,33,0.0,0.0,97,0.00,SCT,,0.00,0.0,WeatherDisplay:10.37,2013-08-04 08:57:00,
2013-08-04 05:03:00,76.5,75.6,29.91,NNE,33,0.0,0.0,97,0.00,BKN,,0.00,0.0,WeatherDisplay:10.37,2013-08-04 09:03:00,
2013-08-04 05:08:00,76.4,75.5,29.91,NNE,33,0.0,0.0,97,0.00,BKN,,0.00,0.0,WeatherDisplay:10.37,2013-08-04 09:08:00,
2013-08-04 05:13:00,76.3,75.4,29.91,NE,34,0.0,0.0,97,0.00,BKN,,0.00,0.0,WeatherDisplay:10.37,2013-08-04 09:13:00,
2013-08-04 05:18:00,76.3,75.4,29.91,NNE,33,0.0,0.0,97,0.00,BKN,,0.00,0.0,WeatherDisplay:10.37,2013-08-04 09:18:00,
2013-08-04 05:23:00,76.2,75.3,29.91,NNE,33,0.0,0.0,97,0.00,BKN,,0.00,0.0,WeatherDisplay:10.37,2013-08-04 09:23:00,
2013-08-04 05:28:00,76.2,75.3,29.91,NE,34,0.0,0.0,97,0.00,BKN,,0.00,0.0,WeatherDisplay:10.37,2013-08-04 09:28:00,
2013-08-04 05:33:00,76.3,75.4,29.91,NE,34,0.0,0.0,97,0.00,BKN,,0.00,0.0,WeatherDisplay:10.37,2013-08-04 09:33:00,
2013-08-04 05:38:00,76.2,75.3,29.92,NE,34,0.0,0.0,97,0.00,BKN,,0.00,0.0,WeatherDisplay:10.37,2013-08-04 09:38:00,
2013-08-04 05:43:00,76.2,75.3,29.92,NE,34,0.0,0.0,97,0.00,BKN,,0.00,0.0,WeatherDisplay:10.37,2013-08-04 09:43:00,
2013-08-04 05:48:00,76.3,75.4,29.92,NNE,33,0.0,0.0,97,0.00,BKN,,0.00,0.0,WeatherDisplay:10.37,2013-08-04 09:48:00,
2013-08-04 05:53:00,76.1,75.2,29.92,NE,34,0.0,0.0,97,0.00,BKN,,0.00,0.0,WeatherDisplay:10.37,2013-08-04 09:53:00,
2013-08-04 05:58:00,76.0,75.1,29.91,NNE,33,0.0,0.0,97,0.00,BKN,,0.00,0.0,WeatherDisplay:10.37,2013-08-04 09:58:00,
2013-08-04 06:03:00,75.9,75.0,29.92,NNE,33,0.0,0.0,97,0.00,SCT,,0.00,0.0,WeatherDisplay:10.37,2013-08-04 10:03:00,
2013-08-04 06:08:00,75.9,75.0,29.92,NNE,33,0.0,0.0,97,0.00,SCT,,0.00,0.0,WeatherDisplay:10.37,2013-08-04 10:08:00,
2013-08-04 06:13:00,75.8,74.9,29.92,NNE,33,0.0,0.0,97,0.00,SCT,,0.00,0.0,WeatherDisplay:10.37,2013-08-04 10:13:00,
2013-08-04 06:18:00,75.7,74.8,29.92,NNE,33,0.0,0.0,97,0.00,SCT,,0.00,0.0,WeatherDisplay:10.37,2013-08-04 10:18:00,
2013-08-04 06:23:00,75.6,74.7,29.92,NNE,33,0.0,0.0,97,0.00,SCT,,0.00,0.0,WeatherDisplay:10.37,2013-08-04 10:23:00,
2013-08-04 06:28:00,75.5,74.6,29.92,NNE,33,0.0,0.0,97,0.00,SCT,,0.00,0.0,WeatherDisplay:10.37,2013-08-04 10:28:00,
2013-08-04 06:33:00,75.5,74.6,29.93,NNE,33,0.0,0.0,97,0.00,SCT,,0.00,0.0,WeatherDisplay:10.37,2013-08-04 10:33:00,
2013-08-04 06:38:00,75.4,74.5,29.93,NNE,33,0.0,0.0,97,0.00,SCT,,0.00,0.0,WeatherDisplay:10.37,2013-08-04 10:38:00,
2013-08-04 06:43:00,75.3,74.4,29.92,NE,34,0.0,0.0,97,0.00,SCT,,0.00,0.0,WeatherDisplay:10.37,2013-08-04 10:43:00,
2013-08-04 06:48:00,75.3,74.4,29.92,NNE,33,0.0,0.0,97,0.00,SCT,,0.00,0.0,WeatherDisplay:10.37,2013-08-04 10:48:00,
2013-08-04 06:53:00,75.2,74.3,29.93,NNE,33,0.0,0.0,97,0.00,SCT,,0.00,0.0,WeatherDisplay:10.37,2013-08-04 10:53:00,
2013-08-04 06:58:00,75.2,74.3,29.93,NNE,33,0.0,0.0,97,0.00,SCT,,0.00,0.0,WeatherDisplay:10.37,2013-08-04 10:58:00,
2013-08-04 07:03:00,75.2,74.3,29.93,NNE,33,0.0,0.0,97,0.00,BKN,,0.00,0.0,WeatherDisplay:10.37,2013-08-04 11:03:00,
2013-08-04 07:08:00,75.2,74.3,29.93,NNE,33,0.0,0.0,97,0.00,BKN,,0.00,0.0,WeatherDisplay:10.37,2013-08-04 11:08:00,
2013-08-04 07:13:00,75.3,74.4,29.93,NNE,33,0.0,0.0,97,0.00,BKN,,0.00,0.0,WeatherDisplay:10.37,2013-08-04 11:13:00,
2013-08-04 07:18:00,75.3,74.4,29.93,NE,34,0.0,0.0,97,0.00,BKN,,0.00,0.0,WeatherDisplay:10.37,2013-08-04 11:18:00,
2013-08-04 07:23:00,75.4,74.5,29.93,NNE,33,0.0,0.0,97,0.00,BKN,,0.00,0.0,WeatherDisplay:10.37,2013-08-04 11:23:00,
2013-08-04 07:28:00,75.5,74.6,29.93,NNE,33,0.0,0.0,97,0.00,BKN,,0.00,0.0,WeatherDisplay:10.37,2013-08-04 11:28:00,
2013-08-04 07:33:00,75.5,74.6,29.93,NNE,33,0.0,0.0,97,0.00,BKN,,0.00,0.0,WeatherDisplay:10.37,2013-08-04 11:33:00,
2013-08-04 07:38:00,75.6,74.7,29.93,NE,34,0.0,0.0,97,0.00,BKN,,0.00,0.0,WeatherDisplay:10.37,2013-08-04 11:38:00,
2013-08-04 07:43:00,75.8,74.9,29.93,NE,34,0.0,0.0,97,0.00,BKN,,0.00,0.0,WeatherDisplay:10.37,2013-08-04 11:43:00,
2013-08-04 07:48:00,76.0,75.1,29.93,NNE,33,0.0,0.0,97,0.00,BKN,,0.00,0.0,WeatherDisplay:10.37,2013-08-04 11:48:00,
2013-08-04 07:53:00,76.2,75.3,29.93,NNE,33,0.0,0.0,97,0.00,BKN,,0.00,0.0,WeatherDisplay:10.37,2013-08-04 11:53:00,
2013-08-04 07:58:00,76.4,75.5,29.94,NNE,33,0.0,0.1,97,0.00,BKN,,0.00,0.0,WeatherDisplay:10.37,2013-08-04 11:58:00,
2013-08-04 08:03:00,76.5,75.6,29.94,NNE,33,0.0,0.0,97,0.00,BKN,,0.00,0.0,WeatherDisplay:10.37,2013-08-04 12:03:00,
2013-08-04 08:08:00,76.6,75.7,29.94,NE,34,1.2,0.0,97,0.00,BKN,,0.00,0.0,WeatherDisplay:10.37,2013-08-04 12:08:00,
2013-08-04 08:13:00,76.9,76.0,29.94,NE,34,0.0,0.0,97,0.00,BKN,,0.00,0.0,WeatherDisplay:10.37,2013-08-04 12:13:00,
2013-08-04 08:18:00,77.2,76.3,29.94,NE,34,0.0,0.0,97,0.00,BKN,,0.00,0.0,WeatherDisplay:10.37,2013-08-04 12:18:00,
2013-08-04 08:23:00,77.4,76.2,29.94,NNE,33,0.0,0.0,96,0.00,BKN,,0.00,0.0,WeatherDisplay:10.37,2013-08-04 12:23:00,
2013-08-04 08:28:00,77.7,76.2,29.94,NE,34,0.0,0.2,95,0.00,BKN,,0.00,0.0,WeatherDisplay:10.37,2013-08-04 12:28:00,
2013-08-04 08:33:00,78.0,76.1,29.94,NE,34,0.0,0.0,94,0.00,BKN,,0.00,0.0,WeatherDisplay:10.37,2013-08-04 12:33:00,
2013-08-04 08:38:00,78.2,76.3,29.94,NNE,33,1.2,0.0,94,0.00,BKN,,0.00,0.0,WeatherDisplay:10.37,2013-08-04 12:38:00,
2013-08-04 08:44:00,78.5,76.3,29.94,NNE,33,1.2,1.2,93,0.00,BKN,,0.00,0.0,WeatherDisplay:10.37,2013-08-04 12:44:00,
2013-08-04 08:48:00,79.0,76.8,29.94,NNE,33,1.2,1.2,93,0.00,BKN,,0.00,0.0,WeatherDisplay:10.37,2013-08-04 12:48:00,
2013-08-04 08:54:00,79.6,77.1,29.94,NE,34,2.3,2.3,92,0.00,BKN,,0.00,0.0,WeatherDisplay:10.37,2013-08-04 12:54:00,
2013-08-04 08:58:00,80.5,77.3,29.94,SE,130,2.3,2.3,90,0.00,BKN,,0.00,0.0,WeatherDisplay:10.37,2013-08-04 12:58:00,
2013-08-04 09:03:00,81.0,77.1,29.94,SE,129,2.3,0.0,88,0.00,SCT,,0.00,0.0,WeatherDisplay:10.37,2013-08-04 13:03:00,
2013-08-04 09:09:00,81.2,77.0,29.94,SE,131,0.0,0.0,87,0.00,SCT,,0.00,0.0,WeatherDisplay:10.37,2013-08-04 13:09:00,
2013-08-04 09:14:00,81.3,77.1,29.94,SE,131,1.2,1.2,87,0.00,SCT,,0.00,0.0,WeatherDisplay:10.37,2013-08-04 13:14:00,
2013-08-04 09:19:00,81.7,77.5,29.94,SE,130,0.0,0.1,87,0.00,SCT,,0.00,0.0,WeatherDisplay:10.37,2013-08-04 13:19:00,
2013-08-04 09:24:00,82.3,77.7,29.94,East,89,1.0,1.0,86,0.00,SCT,,0.00,0.0,WeatherDisplay:10.37,2013-08-04 13:24:00,
2013-08-04 09:29:00,82.8,77.8,29.94,NE,43,2.3,2.3,85,0.00,SCT,,0.00,0.0,WeatherDisplay:10.37,2013-08-04 13:29:00,
2013-08-04 09:34:00,83.5,78.2,29.94,NE,37,1.2,1.2,84,0.00,SCT,,0.00,0.0,WeatherDisplay:10.37,2013-08-04 13:34:00,
2013-08-04 09:39:00,83.9,78.5,29.94,ESE,111,1.2,1.2,84,0.00,SCT,,0.00,0.0,WeatherDisplay:10.37,2013-08-04 13:39:00,
2013-08-04 09:44:00,84.3,78.2,29.94,East,81,2.3,2.3,82,0.00,SCT,,0.00,0.0,WeatherDisplay:10.37,2013-08-04 13:44:00,
2013-08-04 09:48:00,84.6,78.5,29.93,SE,131,1.2,1.2,82,0.00,SCT,,0.00,0.0,WeatherDisplay:10.37,2013-08-04 13:48:00,
2013-08-04 09:54:00,84.9,78.4,29.93,SSW,206,2.3,0.0,81,0.00,SCT,,0.00,0.0,WeatherDisplay:10.37,2013-08-04 13:54:00,
2013-08-04 09:59:00,85.1,79.0,29.93,SSE,157,1.2,0.0,82,0.00,SCT,,0.00,0.0,WeatherDisplay:10.37,2013-08-04 13:59:00,
2013-08-04 10:04:00,85.4,78.9,29.94,ENE,68,2.3,2.3,81,0.00,BKN,,0.00,0.0,WeatherDisplay:10.37,2013-08-04 14:04:00,
2013-08-04 10:09:00,85.7,78.0,29.93,NE,45,2.3,2.3,78,0.00,BKN,,0.00,0.0,WeatherDisplay:10.37,2013-08-04 14:09:00,
2013-08-04 10:14:00,86.1,78.8,29.93,NNE,30,3.5,3.5,79,0.00,BKN,,0.00,0.0,WeatherDisplay:10.37,2013-08-04 14:14:00,
2013-08-04 10:19:00,86.7,79.0,29.93,North,10,1.2,1.2,78,0.00,BKN,,0.00,0.0,WeatherDisplay:10.37,2013-08-04 14:19:00,
2013-08-04 10:24:00,87.2,79.1,29.93,NE,35,2.3,2.3,77,0.00,BKN,,0.00,0.0,WeatherDisplay:10.37,2013-08-04 14:24:00,
2013-08-04 10:29:00,87.5,79.4,29.93,WNW,291,1.2,1.2,77,0.00,BKN,,0.00,0.0,WeatherDisplay:10.37,2013-08-04 14:29:00,
2013-08-04 10:34:00,87.8,78.1,29.93,NNE,20,2.3,2.3,73,0.00,BKN,,0.00,0.0,WeatherDisplay:10.37,2013-08-04 14:34:00,
2013-08-04 10:39:00,88.0,79.1,29.93,NNE,19,2.3,2.3,75,0.00,BKN,,0.00,0.0,WeatherDisplay:10.37,2013-08-04 14:39:00,
2013-08-04 10:44:00,88.1,78.8,29.93,NNE,29,2.3,2.3,74,0.00,BKN,,0.00,0.0,WeatherDisplay:10.37,2013-08-04 14:44:00,
2013-08-04 10:49:00,88.1,78.8,29.93,SW,229,3.0,3.0,74,0.00,BKN,,0.00,0.0,WeatherDisplay:10.37,2013-08-04 14:49:00,
2013-08-04 10:54:00,88.4,78.6,29.93,SW,228,1.2,1.2,73,0.00,BKN,,0.00,0.0,WeatherDisplay:10.37,2013-08-04 14:54:00,
2013-08-04 10:59:00,88.6,78.8,29.93,WSW,241,2.3,2.3,73,0.00,BKN,,0.00,0.0,WeatherDisplay:10.37,2013-08-04 14:59:00,
2013-08-04 11:04:00,88.7,79.3,29.93,SW,227,1.2,1.2,74,0.00,BKN,,0.00,0.0,WeatherDisplay:10.37,2013-08-04 15:04:00,
2013-08-04 11:09:00,88.4,79.1,29.93,SW,231,2.3,2.3,74,0.00,BKN,,0.00,0.0,WeatherDisplay:10.37,2013-08-04 15:09:00,
2013-08-04 11:14:00,88.4,78.6,29.93,ENE,61,2.0,2.0,73,0.00,BKN,,0.00,0.0,WeatherDisplay:10.37,2013-08-04 15:14:00,
2013-08-04 11:19:00,88.6,79.7,29.93,NNE,31,1.2,1.2,75,0.00,BKN,,0.00,0.0,WeatherDisplay:10.37,2013-08-04 15:19:00,
2013-08-04 11:24:00,89.2,79.4,29.93,NNW,332,2.3,2.3,73,0.00,BKN,,0.00,0.0,WeatherDisplay:10.37,2013-08-04 15:24:00,
2013-08-04 11:29:00,89.4,79.6,29.93,NNW,327,1.2,1.2,73,0.00,BKN,,0.00,0.0,WeatherDisplay:10.37,2013-08-04 15:29:00,
2013-08-04 11:34:00,89.2,79.0,29.93,NNW,328,1.2,1.2,72,0.00,BKN,,0.00,0.0,WeatherDisplay:10.37,2013-08-04 15:34:00,
2013-08-04 11:39:00,89.2,80.2,29.93,NNW,327,0.0,0.0,75,0.00,BKN,,0.00,0.0,WeatherDisplay:10.37,2013-08-04 15:39:00,
2013-08-04 11:44:00,89.1,78.9,29.93,WSW,256,0.0,0.0,72,0.00,BKN,,0.00,0.0,WeatherDisplay:10.37,2013-08-04 15:44:00,
2013-08-04 11:49:00,88.9,79.1,29.93,NE,50,2.3,2.3,73,0.00,BKN,,0.00,0.0,WeatherDisplay:10.37,2013-08-04 15:49:00,
2013-08-04 11:54:00,89.0,80.0,29.93,NNE,25,0.0,0.2,75,0.00,BKN,,0.00,0.0,WeatherDisplay:10.37,2013-08-04 15:54:00,
2013-08-04 11:59:00,89.4,80.0,29.93,NNE,19,1.2,1.2,74,0.00,BKN,,0.00,0.0,WeatherDisplay:10.37,2013-08-04 15:59:00,
2013-08-04 12:04:00,89.6,80.2,29.93,North,4,2.3,2.3,74,0.00,BKN,,0.00,0.0,WeatherDisplay:10.37,2013-08-04 16:04:00,
2013-08-04 12:10:00,89.8,80.0,29.93,North,4,2.3,2.3,73,0.00,BKN,,0.00,0.0,WeatherDisplay:10.37,2013-08-04 16:10:00,
2013-08-04 12:14:00,90.0,80.2,29.93,WSW,237,3.5,3.5,73,0.00,BKN,,0.00,0.0,WeatherDisplay:10.37,2013-08-04 16:14:00,
2013-08-04 12:19:00,89.9,80.1,29.93,SW,222,3.5,3.5,73,0.00,BKN,,0.00,0.0,WeatherDisplay:10.37,2013-08-04 16:19:00,
2013-08-04 12:25:00,89.7,79.0,29.93,SW,235,2.3,2.3,71,0.00,BKN,,0.00,0.0,WeatherDisplay:10.37,2013-08-04 16:25:00,
2013-08-04 12:30:00,89.8,79.1,29.93,SSE,162,3.5,3.5,71,0.00,BKN,,0.00,0.0,WeatherDisplay:10.37,2013-08-04 16:30:00,
2013-08-04 12:35:00,90.1,80.3,29.92,SSE,162,1.2,1.2,73,0.00,BKN,,0.00,0.0,WeatherDisplay:10.37,2013-08-04 16:35:00,
2013-08-04 12:40:00,90.5,80.7,29.92,ENE,66,1.2,1.2,73,0.00,BKN,,0.00,0.0,WeatherDisplay:10.37,2013-08-04 16:40:00,
2013-08-04 12:44:00,91.0,80.7,29.92,NNW,334,2.3,0.0,72,0.00,BKN,,0.00,0.0,WeatherDisplay:10.37,2013-08-04 16:44:00,
2013-08-04 12:50:00,90.9,79.8,29.92,NNW,335,0.0,0.1,70,0.00,BKN,,0.00,0.0,WeatherDisplay:10.37,2013-08-04 16:50:00,
2013-08-04 12:55:00,90.6,79.9,29.92,NNW,335,1.0,1.0,71,0.00,BKN,,0.00,0.0,WeatherDisplay:10.37,2013-08-04 16:55:00,
2013-08-04 12:59:00,90.3,79.2,29.92,SW,224,3.5,3.5,70,0.00,BKN,,0.00,0.0,WeatherDisplay:10.37,2013-08-04 16:59:00,
2013-08-04 13:05:00,89.9,78.8,29.92,ESE,102,1.2,1.2,70,0.00,BKN,,0.00,0.0,WeatherDisplay:10.37,2013-08-04 17:05:00,
2013-08-04 13:10:00,89.8,79.6,29.92,ESE,114,2.3,2.3,72,0.00,BKN,,0.00,0.0,WeatherDisplay:10.37,2013-08-04 17:10:00,
2013-08-04 13:15:00,89.6,78.9,29.91,North,359,3.5,3.5,71,0.00,BKN,,0.00,0.0,WeatherDisplay:10.37,2013-08-04 17:15:00,
2013-08-04 13:20:00,89.8,80.0,29.91,North,359,1.2,1.2,73,0.00,BKN,,0.00,0.0,WeatherDisplay:10.37,2013-08-04 17:20:00,
2013-08-04 13:25:00,89.9,80.5,29.91,WNW,287,1.2,1.2,74,0.00,BKN,,0.00,0.0,WeatherDisplay:10.37,2013-08-04 17:25:00,
2013-08-04 13:30:00,90.4,79.7,29.91,WNW,295,1.2,1.2,71,0.00,BKN,,0.00,0.0,WeatherDisplay:10.37,2013-08-04 17:30:00,
2013-08-04 13:35:00,90.8,79.2,29.91,NNE,12,2.3,2.3,69,0.00,BKN,,0.00,0.0,WeatherDisplay:10.37,2013-08-04 17:35:00,
2013-08-04 13:39:00,91.4,78.9,29.91,SSE,154,2.3,2.3,67,0.00,BKN,,0.00,0.0,WeatherDisplay:10.37,2013-08-04 17:39:00,
2013-08-04 13:44:00,91.9,79.4,29.91,NNE,16,2.3,2.3,67,0.00,BKN,,0.00,0.0,WeatherDisplay:10.37,2013-08-04 17:44:00,
2013-08-04 13:50:00,92.1,79.6,29.90,WNW,303,1.2,1.2,67,0.00,BKN,,0.00,0.0,WeatherDisplay:10.37,2013-08-04 17:50:00,
2013-08-04 13:55:00,92.1,78.6,29.90,NNW,348,6.9,6.9,65,0.00,BKN,,0.00,0.0,WeatherDisplay:10.37,2013-08-04 17:55:00,
2013-08-04 14:00:00,92.2,79.2,29.90,NNE,19,3.5,3.5,66,0.00,BKN,,0.00,0.0,WeatherDisplay:10.37,2013-08-04 18:00:00,
2013-08-04 14:04:00,92.4,79.8,29.90,NNE,24,3.5,3.5,67,0.00,BKN,,0.00,0.0,WeatherDisplay:10.37,2013-08-04 18:04:00,
2013-08-04 14:10:00,92.9,79.4,29.90,North,4,1.2,1.2,65,0.00,BKN,,0.00,0.0,WeatherDisplay:10.37,2013-08-04 18:10:00,
2013-08-04 14:15:00,93.2,80.1,29.90,SSE,162,1.2,0.0,66,0.00,BKN,,0.00,0.0,WeatherDisplay:10.37,2013-08-04 18:15:00,
2013-08-04 14:20:00,93.4,78.4,29.89,NNE,12,1.2,1.2,62,0.00,BKN,,0.00,0.0,WeatherDisplay:10.37,2013-08-04 18:20:00,
2013-08-04 14:25:00,93.6,78.1,29.89,North,10,1.2,1.2,61,0.00,BKN,,0.00,0.0,WeatherDisplay:10.37,2013-08-04 18:25:00,
2013-08-04 14:30:00,93.3,77.8,29.89,NNE,18,3.5,3.5,61,0.00,BKN,,0.00,0.0,WeatherDisplay:10.37,2013-08-04 18:30:00,
2013-08-04 14:35:00,92.9,78.4,29.89,NNW,345,1.2,1.2,63,0.00,BKN,,0.00,0.0,WeatherDisplay:10.37,2013-08-04 18:35:00,
2013-08-04 14:40:00,92.8,77.4,29.89,NNW,342,1.2,1.2,61,0.00,BKN,,0.00,0.0,WeatherDisplay:10.37,2013-08-04 18:40:00,
2013-08-04 14:44:00,92.6,77.7,29.89,NNW,334,2.3,2.3,62,0.00,BKN,,0.00,0.0,WeatherDisplay:10.37,2013-08-04 18:44:00,
2013-08-04 14:50:00,92.3,77.9,29.89,NNE,15,1.2,0.0,63,0.00,BKN,,0.00,0.0,WeatherDisplay:10.37,2013-08-04 18:50:00,
2013-08-04 14:55:00,92.0,78.1,29.88,NW,305,1.2,1.2,64,0.00,BKN,,0.00,0.0,WeatherDisplay:10.37,2013-08-04 18:55:00,
2013-08-04 15:00:00,92.2,78.7,29.88,NNE,15,3.5,3.5,65,0.00,BKN,,0.00,0.0,WeatherDisplay:10.37,2013-08-04 19:00:00,
2013-08-04 15:04:00,92.1,77.7,29.88,NNE,15,0.0,0.0,63,0.00,BKN,,0.00,0.0,WeatherDisplay:10.37,2013-08-04 19:04:00,
2013-08-04 15:10:00,91.6,79.1,29.88,NNE,14,0.0,0.2,67,0.00,BKN,,0.00,0.0,WeatherDisplay:10.37,2013-08-04 19:10:00,
2013-08-04 15:15:00,91.4,78.0,29.88,NNE,14,1.2,1.2,65,0.00,BKN,,0.00,0.0,WeatherDisplay:10.37,2013-08-04 19:15:00,
2013-08-04 15:20:00,91.5,77.6,29.88,NNE,13,1.2,1.2,64,0.00,BKN,,0.00,0.0,WeatherDisplay:10.37,2013-08-04 19:20:00,
2013-08-04 15:25:00,91.4,78.4,29.87,NNE,12,2.3,2.3,66,0.00,BKN,,0.00,0.0,WeatherDisplay:10.37,2013-08-04 19:25:00,
2013-08-04 15:30:00,91.5,79.0,29.87,NE,36,1.2,0.0,67,0.00,BKN,,0.00,0.0,WeatherDisplay:10.37,2013-08-04 19:30:00,
2013-08-04 15:35:00,91.4,79.3,29.87,NE,35,1.2,0.0,68,0.00,BKN,,0.00,0.0,WeatherDisplay:10.37,2013-08-04 19:35:00,
2013-08-04 15:40:00,91.6,77.7,29.86,NE,42,2.3,2.3,64,0.00,BKN,,0.00,0.0,WeatherDisplay:10.37,2013-08-04 19:40:00,
2013-08-04 15:45:00,91.7,78.7,29.86,North,354,0.0,0.9,66,0.00,BKN,,0.00,0.0,WeatherDisplay:10.37,2013-08-04 19:45:00,
2013-08-04 15:50:00,92.1,78.2,29.86,NNW,343,1.2,0.0,64,0.00,BKN,,0.00,0.0,WeatherDisplay:10.37,2013-08-04 19:50:00,
2013-08-04 15:55:00,92.4,78.4,29.86,NNW,342,1.2,1.2,64,0.00,BKN,,0.00,0.0,WeatherDisplay:10.37,2013-08-04 19:55:00,
2013-08-04 16:00:00,92.8,78.3,29.86,NW,322,1.2,1.2,63,0.00,BKN,,0.00,0.0,WeatherDisplay:10.37,2013-08-04 20:00:00,
2013-08-04 16:05:00,93.1,78.1,29.86,NW,305,1.2,1.2,62,0.00,BKN,,0.00,0.0,WeatherDisplay:10.37,2013-08-04 20:05:00,
2013-08-04 16:10:00,93.3,78.8,29.86,NNW,331,1.2,1.2,63,0.00,BKN,,0.00,0.0,WeatherDisplay:10.37,2013-08-04 20:10:00,
2013-08-04 16:15:00,93.1,77.7,29.86,North,354,1.2,1.2,61,0.00,BKN,,0.00,0.0,WeatherDisplay:10.37,2013-08-04 20:15:00,
2013-08-04 16:20:00,92.7,77.8,29.86,North,349,1.2,1.2,62,0.00,BKN,,0.00,0.0,WeatherDisplay:10.37,2013-08-04 20:20:00,
2013-08-04 16:25:00,92.3,77.4,29.86,NNE,16,3.5,3.5,62,0.00,BKN,,0.00,0.0,WeatherDisplay:10.37,2013-08-04 20:25:00,
2013-08-04 16:30:00,91.9,77.5,29.86,NNE,20,0.0,0.0,63,0.00,BKN,,0.00,0.0,WeatherDisplay:10.37,2013-08-04 20:30:00,
2013-08-04 16:35:00,91.5,78.1,29.86,NNE,21,1.0,0.0,65,0.00,BKN,,0.00,0.0,WeatherDisplay:10.37,2013-08-04 20:35:00,
2013-08-04 16:40:00,91.1,77.7,29.86,NNE,20,2.0,2.0,65,0.00,BKN,,0.00,0.0,WeatherDisplay:10.37,2013-08-04 20:40:00,
2013-08-04 16:45:00,90.8,78.3,29.86,SW,222,2.3,2.3,67,0.00,BKN,,0.00,0.0,WeatherDisplay:10.37,2013-08-04 20:45:00,
2013-08-04 16:50:00,90.7,77.3,29.86,North,4,2.3,2.4,65,0.00,BKN,,0.00,0.0,WeatherDisplay:10.37,2013-08-04 20:50:00,
2013-08-04 16:55:00,90.7,77.3,29.87,NNW,341,8.1,8.1,65,0.00,BKN,,0.00,0.0,WeatherDisplay:10.37,2013-08-04 20:55:00,
2013-08-04 17:00:00,90.7,77.3,29.87,North,354,3.5,3.5,65,0.00,BKN,,0.00,0.0,WeatherDisplay:10.37,2013-08-04 21:00:00,
2013-08-04 17:05:00,90.6,78.1,29.87,NNE,30,2.3,2.3,67,0.00,BKN,,0.00,0.0,WeatherDisplay:10.37,2013-08-04 21:05:00,
2013-08-04 17:10:00,90.6,77.7,29.87,North,354,3.0,3.0,66,0.00,BKN,,0.00,0.0,WeatherDisplay:10.37,2013-08-04 21:10:00,
2013-08-04 17:15:00,90.5,78.0,29.87,North,4,1.2,1.2,67,0.00,BKN,,0.00,0.0,WeatherDisplay:10.37,2013-08-04 21:15:00,
2013-08-04 17:20:00,90.4,77.9,29.87,NW,312,1.2,1.2,67,0.00,BKN,,0.00,0.0,WeatherDisplay:10.37,2013-08-04 21:20:00,
2013-08-04 17:25:00,90.2,77.8,29.87,WNW,291,1.2,1.2,67,0.00,BKN,,0.00,0.0,WeatherDisplay:10.37,2013-08-04 21:25:00,
2013-08-04 17:30:00,89.9,77.9,29.87,WNW,290,0.0,0.0,68,0.00,BKN,,0.00,0.0,WeatherDisplay:10.37,2013-08-04 21:30:00,
2013-08-04 17:35:00,89.7,78.2,29.87,NNE,18,1.2,0.0,69,0.00,BKN,,0.00,0.0,WeatherDisplay:10.37,2013-08-04 21:35:00,
2013-08-04 17:40:00,89.6,78.1,29.87,NNE,16,1.2,0.0,69,0.00,BKN,,0.00,0.0,WeatherDisplay:10.37,2013-08-04 21:40:00,
2013-08-04 17:45:00,89.5,77.5,29.87,NNE,14,1.2,1.2,68,0.00,BKN,,0.00,0.0,WeatherDisplay:10.37,2013-08-04 21:45:00,
2013-08-04 17:49:00,89.5,77.5,29.87,NNE,14,1.2,1.2,68,0.00,BKN,,0.00,0.0,WeatherDisplay:10.37,2013-08-04 21:49:00,
2013-08-04 17:54:00,89.5,78.4,29.87,WNW,287,1.2,1.2,70,0.00,BKN,,0.00,0.0,WeatherDisplay:10.37,2013-08-04 21:54:00,
2013-08-04 17:59:00,89.3,77.8,29.87,NNW,337,2.3,2.3,69,0.00,BKN,,0.00,0.0,WeatherDisplay:10.37,2013-08-04 21:59:00,
2013-08-04 18:04:00,89.1,77.6,29.86,North,359,2.3,2.3,69,0.00,BKN,,0.00,0.0,WeatherDisplay:10.37,2013-08-04 22:04:00,
2013-08-04 18:09:00,89.0,77.1,29.87,North,359,0.0,0.0,68,0.00,BKN,,0.00,0.0,WeatherDisplay:10.37,2013-08-04 22:09:00,
2013-08-04 18:14:00,88.9,77.8,29.87,North,359,0.0,0.0,70,0.00,BKN,,0.00,0.0,WeatherDisplay:10.37,2013-08-04 22:14:00,
2013-08-04 18:19:00,88.7,77.2,29.87,North,359,1.2,1.2,69,0.00,BKN,,0.00,0.0,WeatherDisplay:10.37,2013-08-04 22:19:00,
2013-08-04 18:24:00,88.7,78.5,29.87,North,359,0.0,0.0,72,0.00,BKN,,0.00,0.0,WeatherDisplay:10.37,2013-08-04 22:24:00,
2013-08-04 18:29:00,88.6,78.4,29.88,North,359,1.2,1.2,72,0.00,BKN,,0.00,0.0,WeatherDisplay:10.37,2013-08-04 22:29:00,
2013-08-04 18:34:00,88.6,77.1,29.88,North,8,0.0,0.0,69,0.00,BKN,,0.00,0.0,WeatherDisplay:10.37,2013-08-04 22:34:00,
2013-08-04 18:39:00,88.6,78.4,29.88,North,4,0.0,0.0,72,0.00,BKN,,0.00,0.0,WeatherDisplay:10.37,2013-08-04 22:39:00,
2013-08-04 18:44:00,88.5,77.9,29.88,North,4,0.0,0.0,71,0.00,BKN,,0.00,0.0,WeatherDisplay:10.37,2013-08-04 22:44:00,
2013-08-04 18:49:00,88.3,78.1,29.88,North,4,0.0,0.0,72,0.00,BKN,,0.00,0.0,WeatherDisplay:10.37,2013-08-04 22:49:00,
2013-08-04 18:54:00,88.0,78.7,29.88,North,4,1.2,1.2,74,0.00,BKN,,0.00,0.0,WeatherDisplay:10.37,2013-08-04 22:54:00,
2013-08-04 18:59:00,87.7,77.5,29.88,North,8,0.0,0.0,72,0.00,BKN,,0.00,0.0,WeatherDisplay:10.37,2013-08-04 22:59:00,
2013-08-04 19:04:00,87.6,78.3,29.88,North,8,0.0,0.0,74,0.00,BKN,,0.00,0.0,WeatherDisplay:10.37,2013-08-04 23:04:00,
2013-08-04 19:09:00,87.4,78.1,29.89,North,4,1.2,1.2,74,0.00,BKN,,0.00,0.0,WeatherDisplay:10.37,2013-08-04 23:09:00,
2013-08-04 19:14:00,87.4,78.1,29.89,North,8,4.6,4.6,74,0.00,BKN,,0.00,0.0,WeatherDisplay:10.37,2013-08-04 23:14:00,
2013-08-04 19:19:00,87.3,76.7,29.89,NNW,336,4.6,4.6,71,0.00,BKN,,0.00,0.0,WeatherDisplay:10.37,2013-08-04 23:19:00,
2013-08-04 19:24:00,87.5,76.1,29.89,NNE,29,3.5,3.5,69,0.00,BKN,,0.00,0.0,WeatherDisplay:10.37,2013-08-04 23:24:00,
2013-08-04 19:29:00,87.5,76.5,29.89,North,354,4.6,4.6,70,0.00,BKN,,0.00,0.0,WeatherDisplay:10.37,2013-08-04 23:29:00,
2013-08-04 19:34:00,87.4,76.4,29.89,NNW,338,4.6,4.6,70,0.00,BKN,,0.00,0.0,WeatherDisplay:10.37,2013-08-04 23:34:00,
2013-08-04 19:39:00,87.2,76.2,29.89,North,8,8.1,8.1,70,0.00,BKN,,0.00,0.0,WeatherDisplay:10.37,2013-08-04 23:39:00,
2013-08-04 19:44:00,87.0,76.5,29.90,NNW,346,3.5,3.5,71,0.00,BKN,,0.00,0.0,WeatherDisplay:10.37,2013-08-04 23:44:00,
2013-08-04 19:49:00,86.7,76.2,29.90,North,354,5.8,5.8,71,0.00,BKN,,0.00,0.0,WeatherDisplay:10.37,2013-08-04 23:49:00,
2013-08-04 19:54:00,86.3,76.2,29.90,North,8,4.6,4.6,72,0.00,BKN,,0.00,0.0,WeatherDisplay:10.37,2013-08-04 23:54:00,
2013-08-04 19:59:00,85.9,75.8,29.90,NNW,347,1.2,1.2,72,0.00,BKN,,0.00,0.0,WeatherDisplay:10.37,2013-08-04 23:59:00,
2013-08-04 20:04:00,85.7,76.0,29.91,NNE,24,1.2,1.2,73,0.00,BKN,,0.00,0.0,WeatherDisplay:10.37,2013-08-05 00:04:00,
2013-08-04 20:09:00,85.4,75.3,29.90,NNE,16,4.6,4.6,72,0.00,BKN,,0.00,0.0,WeatherDisplay:10.37,2013-08-05 00:09:00,
2013-08-04 20:14:00,85.2,75.6,29.91,NNE,23,1.2,0.0,73,0.00,BKN,,0.00,0.0,WeatherDisplay:10.37,2013-08-05 00:14:00,
2013-08-04 20:19:00,85.0,75.8,29.91,ENE,70,0.0,0.0,74,0.00,BKN,,0.00,0.0,WeatherDisplay:10.37,2013-08-05 00:19:00,
2013-08-04 20:24:00,84.7,75.9,29.91,NNE,20,2.0,2.0,75,0.00,BKN,,0.00,0.0,WeatherDisplay:10.37,2013-08-05 00:24:00,
2013-08-04 20:29:00,84.4,76.0,29.91,NNE,13,0.0,0.0,76,0.00,BKN,,0.00,0.0,WeatherDisplay:10.37,2013-08-05 00:29:00,
2013-08-04 20:34:00,84.3,76.3,29.92,NNE,14,0.0,0.0,77,0.00,BKN,,0.00,0.0,WeatherDisplay:10.37,2013-08-05 00:34:00,
2013-08-04 20:39:00,84.0,76.4,29.92,NNE,14,0.0,0.0,78,0.00,BKN,,0.00,0.0,WeatherDisplay:10.37,2013-08-05 00:39:00,
2013-08-04 20:44:00,83.7,76.5,29.92,NNE,14,0.0,0.1,79,0.00,BKN,,0.00,0.0,WeatherDisplay:10.37,2013-08-05 00:44:00,
2013-08-04 20:49:00,83.4,77.0,29.92,SE,139,1.2,1.2,81,0.00,BKN,,0.00,0.0,WeatherDisplay:10.37,2013-08-05 00:49:00,
2013-08-04 20:54:00,83.2,77.1,29.93,SE,137,1.2,1.2,82,0.00,BKN,,0.00,0.0,WeatherDisplay:10.37,2013-08-05 00:54:00,
2013-08-04 20:59:00,82.9,77.2,29.93,ESE,115,0.0,0.0,83,0.00,BKN,,0.00,0.0,WeatherDisplay:10.37,2013-08-05 00:59:00,
2013-08-04 21:04:00,82.7,77.0,29.93,ESE,114,0.0,0.0,83,0.00,BKN,,0.00,0.0,WeatherDisplay:10.37,2013-08-05 01:04:00,
2013-08-04 21:09:00,82.5,77.2,29.93,ESE,116,0.0,0.0,84,0.00,BKN,,0.00,0.0,WeatherDisplay:10.37,2013-08-05 01:09:00,
2013-08-04 21:14:00,82.2,76.9,29.93,ESE,116,0.0,0.0,84,0.00,BKN,,0.00,0.0,WeatherDisplay:10.37,2013-08-05 01:14:00,
2013-08-04 21:19:00,82.1,77.1,29.93,ESE,114,0.0,0.0,85,0.00,BKN,,0.00,0.0,WeatherDisplay:10.37,2013-08-05 01:19:00,
2013-08-04 21:24:00,81.9,76.2,29.93,ESE,114,0.0,0.1,83,0.00,BKN,,0.00,0.0,WeatherDisplay:10.37,2013-08-05 01:24:00,
2013-08-04 21:29:00,81.8,76.8,29.94,ESE,109,0.0,0.0,85,0.00,BKN,,0.00,0.0,WeatherDisplay:10.37,2013-08-05 01:29:00,
2013-08-04 21:34:00,81.7,77.1,29.94,ESE,109,0.0,0.0,86,0.00,BKN,,0.00,0.0,WeatherDisplay:10.37,2013-08-05 01:34:00,
2013-08-04 21:39:00,81.5,76.6,29.94,ESE,109,0.0,0.0,85,0.00,BKN,,0.00,0.0,WeatherDisplay:10.37,2013-08-05 01:39:00,
2013-08-04 21:44:00,81.4,76.5,29.94,ESE,109,1.2,0.0,85,0.00,BKN,,0.00,0.0,WeatherDisplay:10.37,2013-08-05 01:44:00,
2013-08-04 21:49:00,81.3,76.4,29.95,ENE,67,1.2,1.2,85,0.00,BKN,,0.00,0.0,WeatherDisplay:10.37,2013-08-05 01:49:00,
2013-08-04 21:54:00,81.3,76.0,29.95,NNE,16,3.5,3.5,84,0.00,BKN,,0.00,0.0,WeatherDisplay:10.37,2013-08-05 01:54:00,
2013-08-04 21:59:00,81.4,75.4,29.95,NNE,27,3.5,3.5,82,0.00,BKN,,0.00,0.0,WeatherDisplay:10.37,2013-08-05 01:59:00,
2013-08-04 22:04:00,81.6,75.2,29.96,NE,34,3.5,3.5,81,0.00,BKN,,0.00,0.0,WeatherDisplay:10.37,2013-08-05 02:04:00,
2013-08-04 22:09:00,81.8,75.0,29.96,East,97,6.9,6.9,80,0.00,BKN,,0.00,0.0,WeatherDisplay:10.37,2013-08-05 02:09:00,
2013-08-04 22:14:00,82.0,76.3,29.96,ESE,104,6.9,6.9,83,0.00,BKN,,0.00,0.0,WeatherDisplay:10.37,2013-08-05 02:14:00,
2013-08-04 22:19:00,82.0,76.7,29.95,East,90,3.5,3.5,84,0.00,BKN,,0.00,0.0,WeatherDisplay:10.37,2013-08-05 02:19:00,
2013-08-04 22:24:00,81.9,76.9,29.96,East,79,3.5,3.5,85,0.00,BKN,,0.00,0.0,WeatherDisplay:10.37,2013-08-05 02:24:00,
2013-08-04 22:29:00,81.8,77.2,29.96,ENE,77,5.8,5.8,86,0.00,BKN,,0.00,0.0,WeatherDisplay:10.37,2013-08-05 02:29:00,
2013-08-04 22:34:00,81.6,77.0,29.96,East,89,3.5,3.5,86,0.00,BKN,,0.00,0.0,WeatherDisplay:10.37,2013-08-05 02:34:00,
2013-08-04 22:39:00,81.5,76.9,29.96,SE,137,3.5,3.5,86,0.00,BKN,,0.00,0.0,WeatherDisplay:10.37,2013-08-05 02:39:00,
2013-08-04 22:44:00,81.4,77.2,29.96,ESE,108,2.3,2.3,87,0.00,BKN,,0.00,0.0,WeatherDisplay:10.37,2013-08-05 02:44:00,
2013-08-04 22:49:00,81.3,77.1,29.97,South,175,1.2,0.0,87,0.00,BKN,,0.00,0.0,WeatherDisplay:10.37,2013-08-05 02:49:00,
2013-08-04 22:54:00,81.1,76.9,29.97,East,89,3.5,3.5,87,0.00,BKN,,0.00,0.0,WeatherDisplay:10.37,2013-08-05 02:54:00,
2013-08-04 22:59:00,81.0,76.8,29.97,East,87,1.2,1.2,87,0.00,BKN,,0.00,0.0,WeatherDisplay:10.37,2013-08-05 02:59:00,
2013-08-04 23:04:00,80.9,76.7,29.97,East,97,2.3,2.3,87,0.00,BKN,,0.00,0.0,WeatherDisplay:10.37,2013-08-05 03:04:00,
2013-08-04 23:09:00,80.7,76.5,29.97,NNE,31,3.5,3.5,87,0.00,BKN,,0.00,0.0,WeatherDisplay:10.37,2013-08-05 03:09:00,
2013-08-04 23:14:00,80.6,76.0,29.97,South,171,3.5,3.5,86,0.00,BKN,,0.00,0.0,WeatherDisplay:10.37,2013-08-05 03:14:00,
2013-08-04 23:19:00,80.6,76.0,29.97,ENE,62,3.5,3.5,86,0.00,BKN,,0.00,0.0,WeatherDisplay:10.37,2013-08-05 03:19:00,
2013-08-04 23:24:00,80.6,75.3,29.97,East,100,3.5,3.5,84,0.00,BKN,,0.00,0.0,WeatherDisplay:10.37,2013-08-05 03:24:00,
2013-08-04 23:29:00,80.7,75.1,29.97,East,82,3.5,3.5,83,0.00,BKN,,0.00,0.0,WeatherDisplay:10.37,2013-08-05 03:29:00,
2013-08-04 23:34:00,80.7,75.1,29.97,South,184,2.3,2.3,83,0.00,BKN,,0.00,0.0,WeatherDisplay:10.37,2013-08-05 03:34:00,
2013-08-04 23:39:00,80.6,75.0,29.97,East,91,3.5,3.5,83,0.00,BKN,,0.00,0.0,WeatherDisplay:10.37,2013-08-05 03:39:00,
2013-08-04 23:44:00,80.6,75.0,29.97,East,101,3.5,3.5,83,0.00,BKN,,0.00,0.0,WeatherDisplay:10.37,2013-08-05 03:44:00,
2013-08-04 23:49:00,80.5,75.2,29.97,ENE,66,2.3,2.3,84,0.00,BKN,,0.00,0.0,WeatherDisplay:10.37,2013-08-05 03:49:00,
2013-08-04 23:54:00,80.4,75.1,29.97,East,90,3.5,3.5,84,0.00,BKN,,0.00,0.0,WeatherDisplay:10.37,2013-08-05 03:54:00,
2013-08-04 23:59:00,80.3,75.0,29.97,ESE,104,5.8,5.8,84,0.00,BKN,,0.00,0.0,WeatherDisplay:10.37,2013-08-05 03:59:00,